STARLINK-11305, 61247

Orbit data source: Space-Track

STARLINK-11305, 61247 is a payload satellite owned by SpaceX/Seattle (US) in LEO that was launched on Wed, 25 Sep 2024 UTC via an FALCON 9 launch vehicle from the Air Force Western Test Range (AFWTR). Payloads include a variety of satellites, spacecraft, and rockets equipped with specific instruments for various scientific and technological missions. These include communications satellites like Starlink; space stations such as the ISS; scientific satellites like the Hubble; Earth observation satellites from companies like Planet Labs, Umbra, and HawkEye 360; GPS; miniature CubeSats for education and research; and military/defense satellites.

Loading next visibility...
STARLINK-11305 details
Identifier
61247, 2024-175E
Orbit
LEO
Last TLE update23 hours ago
Origin
Flag of USSpaceX/Seattle (US)
ManufacturerSpaceX/Seattle
MissionOperational spacecraft
Bus & MotorSTARLINK V2M, Unknown motor
Mass730 kg wet, ~700 kg dry
Launch date (UTC)
2024-09-25 (3 months ago)
Launch vehicle
FALCON 9
Launch site
Air Force Western Test Range (AFWTR)
Object type
Payload
Rocket body
Debris
Shape & HBRUnknown
Radar Cross SectionLarge (>1 m²)

Expand to show TLE details & history

TLE from 23 hours ago
0 STARLINK-11305
1 61247U 24175E   24355.56051266 -.00000733  00000-0 -11921-5 0  9993
2 61247  53.1579  85.4695 0001088  72.3827 287.7310 15.69680173 13610
Epoch: 2024-12-20T13:27Z
Definitive object data (Epoch: 2024-12-20T13:27:08.293Z)
Latitude-0.00001°
Longitude154.06067°
Altitude360.504 km
Speed7.694 km/s
True Right ascension05h 41m 52s
True Declination0° 00' 00"
Sunlit
Object was in full shadow at TLE epoch
Visualization TLE readout
Latitude-30.33569°
Longitude123.53685°
Altitude369.388 km
Speed7.688 km/s
Apparent Right ascension01h 40m 00s
Apparent Declination-39° 40' 53"
Sunlit
Object is in full shadow
Visualization observer readout
Local Sidereal Time11:14:15
Azimuth258.568° W
Elevation-62.204°
Doppler factor1
Orbital elements
Apogee altitude360.806 km
Perigee altitude359.34 km
Semi-major axis6,738.21 km
Eccentricity0.0001088
Inclination53.1579°
RAAN85.4695°
Arg. of periapsis72.3827°
True anomaly287.71912°
Mean anomaly287.731°
Eccentric anomaly287.72506°
Mean motion3.92398 °/min
BSTAR-0.0000011921
Orbital period91.74 mins
Loading maneuver chart data...
Loading historical data...
Loading historical data...
Loading historical data...
Loading historical data...
Loading historical data...
Loading historical data...
Loading historical data...

STARLINK-11305 Visibility forecast

Observer location: undefined°, undefined

Span
Click to sort rows by Start time (UTC) header in descending order
Start Az.
Max El. time (UTC)
Max El. Az.
Max El.
End time (UTC)
End Az.
4 mins2024-12-21 15:57:30.048Z288.273° WNW2024-12-21 15:58:30.048Z235.697° WSW39.873°2024-12-21 16:01:30.048Z143.429° SSE
|